SCP
-0 0 0 0 0 0 0 0 -0 -0 -0 -0 -0 -0 -0 -0 -0 -0 -0 0 0 0 0 0 0 0 0 0 0 0 0 0 0 0 0 0 0 0 0 0 0 0 0
-0 -0 0 0 0 0 0 0 0 0 0 -0 -0 -0 -0 -0 -0 -0 -0 0 0 0 0 0 0 0 0 0 0 0 0 0 0 0 0 0 0 0 0 0 0 0 0
0 0 0 0 0 0 0 0 0 0 0 0 -0 -0 -0 -0 -0 -0 -0 0 0 0 0 0 0 0 0 0 0 0 0 0 0 0 0 0 0 0 0 0 0 0 0
0 0 0 0 0 0 0 0 0 0 -0 -0 -0 -0 -0 -0 -0 -0 -0 -0 0 0 0 0 0 0 0 0 0 0 0 0 0 0 0 0 0 0 0 0 0 0 0
0 0 0 0 0 0 0 0 0 0 0 0 0 -0 -0 -0 -0 0 0 0 0 0 0 0 0 0 0 0 0 0 0 0 0 0 0 0 0 0 0 0 0 0 0
0 0 0 0 -0 -0 0 0 0 0 0 0 0 0 0 0 0 0 0 0 0 0 0 0 0 0 0 0 0 0 0 0 0 0 0 0 0 0 0 0 0 0 0
0 0 0 0 0 -0 -0 0 0 0 0 0 0 0 0 0 0 0 0 0 0 0 0 0 0 0 0 0 0 0 0 0 0 0 0 0 0 0 0 0 0 0 0
0 0 0 0 -0 -0 -0 0 0 0 0 0 0 0 0 0 0 0 0 0 0 0 0 0 0 0 0 0 0 0 0 0 0 0 0 0 0 0 0 0 0 0 0
0 0 0 0 -0 -0 0 0 0 0 0 0 0 0 0 0 0 0 0 0 0 0 0 0 0 0 0 0 0 0 0 0 0 0 0 0 0 0 0 0 0 0 0
0 0 0 0 -0 -0 0 0 0 0 0 0 0 0 0 0 -0 0 0 0 0 0 0 0 0 0 0 0 0 0 0 0 0 0 0 0 0 0 0 0 0 0 0
0 0 0 0 -0 -0 0 0 0 0 0 0 0 0 0 0 0 0 0 0 -0 -0 0 0 0 0 0 0 0 0 0 0 0 0 0 0 0 0 0 0 0 0 0
0 0 0 0 0 0 0 0 0 0 0 0 0 0 0 0 0 0 0 0 0 0 0 0 0 0 0 0 0 0 0 0 0 0 0 0 0 0 0 0 0 0 0
0 0 -0 -0 -0 0 0 0 0 0 0 0 0 0 0 0 0 0 0 0 0 0 0 0 0 0 0 0 0 0 0 0 0 0 0 0 0 0 0 0 0 0 0
0 0 -0 -0 -0 0 0 0 0 0 0 0 0 0 0 0 0 0 -0 -0 0 0 0 0 0 0 0 0 0 0 0 0 0 0 0 0 0 0 0 0 0 0 0
0 -0 -0 -0 -0 -0 0 0 0 0 0 0 0 0 0 0 0 0 -0 -0 0 0 0 0 0 0 0 0 0 0 0 0 0 0 0 0 0 0 0 0 0 0 0
0 -0 -0 -0 -0 0 0 0 0 0 0 0 0 0 0 0 0 0 -0 0 0 0 0 0 0 0 0 0 0 0 0 0 0 0 0 0 0 0 0 0 0 0 0
0 -0 -0 -0 -0 -0 0 -0 -0 0 0 0 0 0 0 0 -0 -0 -0 -0 0 0 0 0 0 0 0 0 0 0 0 0 0 0 0 0 0 0 0 0 0 0 0
0 -0 0 0 0 0 0 0 0 0 0 -0 0 0 0 0 0 -0 -0 -0 -0 0 0 0 0 0 0 0 0 0 0 0 0 0 0 0 0 0 0 0 0 0 0
0 0 0 0 0 0 0 0 0 0 0 0 0 0 0 0 0 0 0 -0 -0 0 0 0 0 0 0 0 0 0 0 0 0 0 0 0 0 0 0 0 0 0 0
0 0 0 0 0 0 0 0 0 0 0 0 0 0 0 0 0 0 -0 -0 -0 -0 0 0 0 0 0 0 0 0 0 0 0 0 0 0 0 0 0 0 0 0 0
0 0 0 0 0 0 0 0 0 0 0 0 0 0 0 0 0 0 -0 -0 -0 0 0 0 0 0 0 0 0 0 0 0 0 0 0 0 0 0 0 0 0 0 0
0 0 0 0 0 0 0 0 0 0 0 0 0 0 0 0 0 -0 0 0 0 0 0 0 0 0 0 0 0 0 0 0 0 0 0 0 0 0 0 0 0 0 0
0 0 0 0 0 0 0 0 0 0 0 0 0 0 0 0 0 0 0 0 0 0 0 0 0 0 0 0 0 0 0 0 0 0 0 0 0 0 0 0 0 0 0
0 0 0 0 0 0 0 0 0 0 0 0 0 0 0 0 0 0 0 0 0 0 0 0 0 0 0 0 0 0 0 0 0 0 0 0 0 0 0 0 0 0 0
0 0 0 0 0 0 0 0 0 0 0 0 0 0 0 0 0 0 0 0 0 0 0 0 0 0 0 0 0 0 0 0 0 0 0 0 0 0 0 0 0 0 0
0 0 0 0 0 0 0 0 0 0 0 0 0 0 0 0 0 0 0 0 0 0 0 0 0 0 0 0 0 0 0 0 0 0 0 0 0 0 0 0 0 0 0
Wind_Speed_500mb
73 67 65 66 67 68 71 68 70 74 76 80 82 80 82 80 80 81 71 69 69 69 66 64 70 67 69 73 78 92 97 106 101 90 74 65 56 56 56 58 55 52 50
68 68 69 70 71 71 71 72 71 74 74 79 83 82 79 80 79 80 80 68 68 69 69 66 67 68 69 71 73 86 87 102 101 101 86 73 67 59 53 53 53 52 50
67 69 73 74 74 75 76 75 73 75 78 78 82 82 80 77 78 78 81 70 68 70 68 69 70 66 72 70 78 87 85 97 101 99 86 70 69 65 59 57 57 63 54
69 73 81 77 76 78 78 76 75 75 80 82 81 81 78 76 74 74 81 77 69 71 71 67 70 72 73 73 71 78 86 100 98 96 81 75 75 71 66 62 65 63 54
69 76 83 78 78 80 81 77 74 75 79 82 82 80 77 75 71 70 75 81 76 74 73 72 69 71 74 74 71 70 83 97 96 94 78 75 78 74 67 64 64 57 52
71 80 77 76 81 83 83 77 73 76 76 79 78 78 78 75 71 66 67 78 81 75 78 77 71 69 71 71 70 74 74 91 89 92 89 89 85 76 71 68 66 63 55
78 72 72 77 84 84 83 76 73 76 76 77 76 75 78 75 73 65 64 74 82 77 75 76 74 66 67 65 65 73 77 80 82 98 97 90 83 78 63 65 70 61 57
74 72 75 78 84 86 80 74 73 74 74 76 76 76 79 78 71 64 61 72 78 74 72 64 63 62 65 58 60 71 80 74 83 84 83 79 76 72 67 60 63 57 53
76 76 75 78 84 84 76 72 71 72 71 73 74 76 77 77 69 62 58 70 77 74 69 61 51 52 59 61 63 75 79 77 73 70 67 68 69 65 58 61 65 61 56
76 76 79 83 83 77 71 69 68 68 70 71 73 73 75 76 66 60 55 61 75 75 67 62 51 52 55 62 70 76 81 75 69 60 54 53 54 53 57 61 59 58 53
77 82 83 79 75 71 68 65 66 67 68 69 72 72 74 73 68 58 55 53 63 73 64 61 55 46 51 62 70 75 77 72 66 68 63 59 58 59 61 59 55 48 52
75 77 76 72 67 65 64 63 63 65 67 68 73 73 71 74 70 61 54 49 55 68 62 56 52 48 50 52 64 67 68 70 70 66 63 63 63 61 58 55 49 51 55
71 73 71 67 63 60 60 61 63 64 66 68 71 72 74 73 75 66 61 56 51 64 59 50 48 43 47 48 51 56 60 66 67 66 66 64 61 58 55 50 48 49 49
70 72 70 69 64 61 60 60 61 62 64 66 69 70 71 72 77 75 71 66 58 64 63 45 43 39 39 44 45 48 57 61 63 63 63 61 60 58 53 49 48 47 42
69 73 72 70 67 65 61 62 62 61 58 61 62 64 66 72 74 72 72 74 64 55 60 44 39 34 36 43 45 51 55 59 64 66 64 61 61 57 52 48 46 47 43
71 74 73 71 68 67 67 65 62 61 54 54 54 50 58 59 66 70 70 65 56 47 51 41 37 37 41 44 47 51 54 56 59 56 54 57 55 54 53 52 50 44 40
72 74 72 69 68 67 65 67 70 65 61 53 52 52 51 54 60 65 63 59 50 45 45 38 37 41 46 49 50 52 53 52 51 51 52 51 50 50 52 52 52 49 45
69 67 66 64 62 61 62 63 65 67 73 71 51 53 55 52 54 56 52 51 43 35 35 37 37 43 50 52 54 55 54 50 46 47 48 48 49 50 53 51 52 50 49
69 63 59 58 56 55 56 58 60 61 63 67 67 54 54 56 50 50 45 40 40 35 29 38 39 42 50 54 55 54 51 46 46 49 49 47 48 50 51 49 47 48 48
57 54 51 51 52 53 53 53 55 57 58 60 62 62 64 65 63 59 53 44 36 33 28 30 43 43 48 51 54 55 48 44 46 44 44 42 44 49 49 49 51 50 48
50 48 47 46 47 49 51 53 52 53 55 56 57 54 55 60 64 62 58 51 41 36 33 26 36 46 47 47 51 54 48 53 51 47 46 41 41 46 47 47 49 48 46
45 44 43 44 46 46 47 50 52 51 51 54 54 49 50 52 55 57 53 49 43 38 36 34 29 46 45 46 46 53 59 59 52 45 41 41 44 47 48 49 49 48 51
39 41 41 40 41 43 44 46 49 48 48 49 52 52 50 51 53 55 55 50 44 38 35 36 34 32 46 43 39 43 52 56 46 36 43 46 49 49 50 52 52 55 57
37 38 40 40 40 40 42 44 47 46 46 46 48 48 48 51 53 54 53 50 45 38 35 35 34 29 38 41 37 39 44 51 52 33 37 40 46 48 51 54 54 55 53
35 36 36 38 39 40 41 41 43 44 45 45 45 46 46 47 49 51 52 48 43 38 32 30 29 29 27 35 37 40 43 49 45 35 37 43 45 48 52 54 55 58 54
33 33 33 34 35 36 37 38 40 42 45 44 44 44 45 46 48 51 51 48 43 36 29 23 21 26 23 28 34 39 36 42 42 38 40 44 47 51 55 56 60 62 57
Wind_Direction_500mb
332 328 327 326 328 328 329 329 328 329 330 331 329 323 321 322 322 322 316 314 307 299 283 278 278 282 278 274 269 263 252 246 238 241 232 229 226 232 239 243 244 251 254
328 325 326 324 324 325 325 324 324 325 326 328 329 325 319 319 321 320 317 313 311 303 292 281 275 277 277 278 271 265 260 247 235 233 227 218 217 219 232 236 242 250 253
323 324 325 322 321 322 322 321 319 320 322 323 325 325 321 318 318 317 319 310 310 303 295 282 275 271 271 272 272 263 261 251 240 232 220 216 215 214 221 230 244 245 243
318 321 324 321 319 321 321 319 317 317 318 320 321 322 320 317 316 318 320 312 306 303 297 285 274 266 265 266 268 269 261 244 235 225 220 218 217 213 216 227 230 235 236
313 316 320 316 316 319 320 318 315 315 316 318 319 319 320 316 316 319 321 316 306 304 298 289 276 267 261 262 264 264 259 244 234 221 211 212 210 210 211 223 229 234 233
311 314 313 313 314 316 317 316 314 314 317 318 320 320 320 317 317 318 320 319 306 303 299 293 283 271 262 260 264 263 262 247 236 219 214 215 214 208 217 223 225 222 224
311 310 310 312 313 315 315 314 313 314 317 318 320 321 320 318 317 318 319 320 308 303 301 294 284 273 266 260 259 258 256 256 248 233 220 214 212 212 212 220 221 221 227
308 307 306 308 311 314 314 312 311 314 317 320 320 320 318 318 315 318 319 320 311 306 302 290 284 276 272 266 262 253 244 238 228 224 222 215 213 212 216 225 226 213 220
307 304 303 307 310 313 312 310 311 314 318 320 323 322 320 320 317 318 317 320 319 312 304 293 286 279 274 269 258 242 235 222 224 218 218 215 217 209 212 216 209 207 211
305 304 305 307 308 310 310 308 309 312 315 319 321 324 323 323 322 319 317 319 327 320 306 299 289 285 281 267 248 241 227 221 210 200 196 197 199 204 207 209 210 207 204
306 307 308 307 306 306 306 305 307 310 313 316 319 322 324 326 323 321 320 318 329 327 311 302 300 292 277 259 253 243 231 213 200 196 188 190 193 198 199 199 202 202 204
311 314 313 311 309 306 304 304 307 311 313 315 318 320 323 325 325 326 323 315 325 330 318 304 300 299 285 256 242 230 222 207 196 192 185 186 191 192 194 197 199 199 201
318 320 317 314 312 308 306 307 309 312 314 315 317 320 321 324 324 327 325 319 320 329 324 306 299 298 288 248 235 224 215 204 196 190 187 187 192 193 194 191 198 198 204
321 321 319 315 313 310 308 310 311 313 315 315 316 318 320 321 322 324 324 322 321 328 325 310 299 294 268 235 216 215 211 205 200 195 191 187 190 191 190 197 197 196 195
319 321 320 316 313 311 310 312 313 314 317 313 314 313 316 317 318 316 317 315 313 320 316 309 299 275 232 216 208 205 205 204 202 199 193 188 189 187 188 191 192 191 191
318 320 318 316 313 313 313 311 311 314 314 313 313 310 307 308 311 312 313 315 309 311 310 302 290 254 224 210 206 204 205 203 203 197 193 193 190 189 190 187 190 188 194
317 317 316 315 313 314 314 315 314 311 316 316 317 316 315 313 311 314 314 312 307 307 303 292 279 249 225 214 208 207 202 201 198 194 193 193 194 193 193 191 189 190 195
315 314 313 313 313 314 315 315 315 317 316 318 321 321 321 317 314 318 320 314 304 310 318 294 278 258 235 224 215 210 204 198 195 193 194 196 197 199 197 195 197 198 201
313 313 313 313 315 316 316 314 314 316 317 318 322 324 323 322 322 323 324 318 304 305 319 310 282 266 250 235 227 219 213 205 200 197 196 198 202 202 202 202 201 205 204
311 311 314 315 318 319 320 317 317 319 320 322 325 330 330 327 329 330 329 325 310 297 303 301 296 273 261 250 236 225 215 208 206 204 205 204 207 205 206 204 205 207 204
311 313 315 316 321 323 323 322 322 322 323 324 325 330 331 329 328 328 326 323 314 297 292 291 283 283 264 256 243 230 218 214 207 207 209 211 212 207 206 208 207 206 203
313 313 316 319 322 326 326 325 324 323 323 322 323 326 326 326 327 328 326 320 312 299 287 282 275 271 274 257 249 234 225 220 214 212 217 223 217 212 208 206 205 202 199
310 310 313 317 320 325 330 329 326 325 325 324 325 327 328 330 332 332 329 323 315 301 288 273 267 261 274 263 252 240 233 226 213 221 231 221 213 212 206 203 201 198 195
310 309 314 317 320 323 328 333 334 333 332 329 328 330 331 333 335 336 333 326 317 307 295 274 260 250 267 265 247 236 229 226 217 234 232 221 214 210 204 199 198 194 191
312 308 313 316 319 322 328 332 334 337 339 338 337 337 337 337 339 341 339 333 325 315 299 278 257 246 251 256 241 230 227 225 219 212 228 212 209 207 202 198 192 188 189
313 311 316 318 320 322 327 332 335 341 345 347 347 348 347 347 348 347 346 346 338 327 311 294 259 243 238 241 236 235 228 221 205 225 219 207 203 203 199 194 188 187 185
Wind_Speed_850mb
73 67 65 66 67 68 71 68 70 74 76 80 82 80 82 80 80 81 71 69 69 69 66 64 70 67 69 73 78 92 97 106 101 90 74 65 56 56 56 58 55 52 50
68 68 69 70 71 71 71 72 71 74 74 79 83 82 79 80 79 80 80 68 68 69 69 66 67 68 69 71 73 86 87 102 101 101 86 73 67 59 53 53 53 52 50
67 69 73 74 74 75 76 75 73 75 78 78 82 82 80 77 78 78 81 70 68 70 68 69 70 66 72 70 78 87 85 97 101 99 86 70 69 65 59 57 57 63 54
69 73 81 77 76 78 78 76 75 75 80 82 81 81 78 76 74 74 81 77 69 71 71 67 70 72 73 73 71 78 86 100 98 96 81 75 75 71 66 62 65 63 54
69 76 83 78 78 80 81 77 74 75 79 82 82 80 77 75 71 70 75 81 76 74 73 72 69 71 74 74 71 70 83 97 96 94 78 75 78 74 67 64 64 57 52
71 80 77 76 81 83 83 77 73 76 76 79 78 78 78 75 71 66 67 78 81 75 78 77 71 69 71 71 70 74 74 91 89 92 89 89 85 76 71 68 66 63 55
78 72 72 77 84 84 83 76 73 76 76 77 76 75 78 75 73 65 64 74 82 77 75 76 74 66 67 65 65 73 77 80 82 98 97 90 83 78 63 65 70 61 57
74 72 75 78 84 86 80 74 73 74 74 76 76 76 79 78 71 64 61 72 78 74 72 64 63 62 65 58 60 71 80 74 83 84 83 79 76 72 67 60 63 57 53
76 76 75 78 84 84 76 72 71 72 71 73 74 76 77 77 69 62 58 70 77 74 69 61 51 52 59 61 63 75 79 77 73 70 67 68 69 65 58 61 65 61 56
76 76 79 83 83 77 71 69 68 68 70 71 73 73 75 76 66 60 55 61 75 75 67 62 51 52 55 62 70 76 81 75 69 60 54 53 54 53 57 61 59 58 53
77 82 83 79 75 71 68 65 66 67 68 69 72 72 74 73 68 58 55 53 63 73 64 61 55 46 51 62 70 75 77 72 66 68 63 59 58 59 61 59 55 48 52
75 77 76 72 67 65 64 63 63 65 67 68 73 73 71 74 70 61 54 49 55 68 62 56 52 48 50 52 64 67 68 70 70 66 63 63 63 61 58 55 49 51 55
71 73 71 67 63 60 60 61 63 64 66 68 71 72 74 73 75 66 61 56 51 64 59 50 48 43 47 48 51 56 60 66 67 66 66 64 61 58 55 50 48 49 49
70 72 70 69 64 61 60 60 61 62 64 66 69 70 71 72 77 75 71 66 58 64 63 45 43 39 39 44 45 48 57 61 63 63 63 61 60 58 53 49 48 47 42
69 73 72 70 67 65 61 62 62 61 58 61 62 64 66 72 74 72 72 74 64 55 60 44 39 34 36 43 45 51 55 59 64 66 64 61 61 57 52 48 46 47 43
71 74 73 71 68 67 67 65 62 61 54 54 54 50 58 59 66 70 70 65 56 47 51 41 37 37 41 44 47 51 54 56 59 56 54 57 55 54 53 52 50 44 40
72 74 72 69 68 67 65 67 70 65 61 53 52 52 51 54 60 65 63 59 50 45 45 38 37 41 46 49 50 52 53 52 51 51 52 51 50 50 52 52 52 49 45
69 67 66 64 62 61 62 63 65 67 73 71 51 53 55 52 54 56 52 51 43 35 35 37 37 43 50 52 54 55 54 50 46 47 48 48 49 50 53 51 52 50 49
69 63 59 58 56 55 56 58 60 61 63 67 67 54 54 56 50 50 45 40 40 35 29 38 39 42 50 54 55 54 51 46 46 49 49 47 48 50 51 49 47 48 48
57 54 51 51 52 53 53 53 55 57 58 60 62 62 64 65 63 59 53 44 36 33 28 30 43 43 48 51 54 55 48 44 46 44 44 42 44 49 49 49 51 50 48
50 48 47 46 47 49 51 53 52 53 55 56 57 54 55 60 64 62 58 51 41 36 33 26 36 46 47 47 51 54 48 53 51 47 46 41 41 46 47 47 49 48 46
45 44 43 44 46 46 47 50 52 51 51 54 54 49 50 52 55 57 53 49 43 38 36 34 29 46 45 46 46 53 59 59 52 45 41 41 44 47 48 49 49 48 51
39 41 41 40 41 43 44 46 49 48 48 49 52 52 50 51 53 55 55 50 44 38 35 36 34 32 46 43 39 43 52 56 46 36 43 46 49 49 50 52 52 55 57
37 38 40 40 40 40 42 44 47 46 46 46 48 48 48 51 53 54 53 50 45 38 35 35 34 29 38 41 37 39 44 51 52 33 37 40 46 48 51 54 54 55 53
35 36 36 38 39 40 41 41 43 44 45 45 45 46 46 47 49 51 52 48 43 38 32 30 29 29 27 35 37 40 43 49 45 35 37 43 45 48 52 54 55 58 54
33 33 33 34 35 36 37 38 40 42 45 44 44 44 45 46 48 51 51 48 43 36 29 23 21 26 23 28 34 39 36 42 42 38 40 44 47 51 55 56 60 62 57
Wind_Direction_850mb
332 328 327 326 328 328 329 329 328 329 330 331 329 323 321 322 322 322 316 314 307 299 283 278 278 282 278 274 269 263 252 246 238 241 232 229 226 232 239 243 244 251 254
328 325 326 324 324 325 325 324 324 325 326 328 329 325 319 319 321 320 317 313 311 303 292 281 275 277 277 278 271 265 260 247 235 233 227 218 217 219 232 236 242 250 253
323 324 325 322 321 322 322 321 319 320 322 323 325 325 321 318 318 317 319 310 310 303 295 282 275 271 271 272 272 263 261 251 240 232 220 216 215 214 221 230 244 245 243
318 321 324 321 319 321 321 319 317 317 318 320 321 322 320 317 316 318 320 312 306 303 297 285 274 266 265 266 268 269 261 244 235 225 220 218 217 213 216 227 230 235 236
313 316 320 316 316 319 320 318 315 315 316 318 319 319 320 316 316 319 321 316 306 304 298 289 276 267 261 262 264 264 259 244 234 221 211 212 210 210 211 223 229 234 233
311 314 313 313 314 316 317 316 314 314 317 318 320 320 320 317 317 318 320 319 306 303 299 293 283 271 262 260 264 263 262 247 236 219 214 215 214 208 217 223 225 222 224
311 310 310 312 313 315 315 314 313 314 317 318 320 321 320 318 317 318 319 320 308 303 301 294 284 273 266 260 259 258 256 256 248 233 220 214 212 212 212 220 221 221 227
308 307 306 308 311 314 314 312 311 314 317 320 320 320 318 318 315 318 319 320 311 306 302 290 284 276 272 266 262 253 244 238 228 224 222 215 213 212 216 225 226 213 220
307 304 303 307 310 313 312 310 311 314 318 320 323 322 320 320 317 318 317 320 319 312 304 293 286 279 274 269 258 242 235 222 224 218 218 215 217 209 212 216 209 207 211
305 304 305 307 308 310 310 308 309 312 315 319 321 324 323 323 322 319 317 319 327 320 306 299 289 285 281 267 248 241 227 221 210 200 196 197 199 204 207 209 210 207 204
306 307 308 307 306 306 306 305 307 310 313 316 319 322 324 326 323 321 320 318 329 327 311 302 300 292 277 259 253 243 231 213 200 196 188 190 193 198 199 199 202 202 204
311 314 313 311 309 306 304 304 307 311 313 315 318 320 323 325 325 326 323 315 325 330 318 304 300 299 285 256 242 230 222 207 196 192 185 186 191 192 194 197 199 199 201
318 320 317 314 312 308 306 307 309 312 314 315 317 320 321 324 324 327 325 319 320 329 324 306 299 298 288 248 235 224 215 204 196 190 187 187 192 193 194 191 198 198 204
321 321 319 315 313 310 308 310 311 313 315 315 316 318 320 321 322 324 324 322 321 328 325 310 299 294 268 235 216 215 211 205 200 195 191 187 190 191 190 197 197 196 195
319 321 320 316 313 311 310 312 313 314 317 313 314 313 316 317 318 316 317 315 313 320 316 309 299 275 232 216 208 205 205 204 202 199 193 188 189 187 188 191 192 191 191
318 320 318 316 313 313 313 311 311 314 314 313 313 310 307 308 311 312 313 315 309 311 310 302 290 254 224 210 206 204 205 203 203 197 193 193 190 189 190 187 190 188 194
317 317 316 315 313 314 314 315 314 311 316 316 317 316 315 313 311 314 314 312 307 307 303 292 279 249 225 214 208 207 202 201 198 194 193 193 194 193 193 191 189 190 195
315 314 313 313 313 314 315 315 315 317 316 318 321 321 321 317 314 318 320 314 304 310 318 294 278 258 235 224 215 210 204 198 195 193 194 196 197 199 197 195 197 198 201
313 313 313 313 315 316 316 314 314 316 317 318 322 324 323 322 322 323 324 318 304 305 319 310 282 266 250 235 227 219 213 205 200 197 196 198 202 202 202 202 201 205 204
311 311 314 315 318 319 320 317 317 319 320 322 325 330 330 327 329 330 329 325 310 297 303 301 296 273 261 250 236 225 215 208 206 204 205 204 207 205 206 204 205 207 204
311 313 315 316 321 323 323 322 322 322 323 324 325 330 331 329 328 328 326 323 314 297 292 291 283 283 264 256 243 230 218 214 207 207 209 211 212 207 206 208 207 206 203
313 313 316 319 322 326 326 325 324 323 323 322 323 326 326 326 327 328 326 320 312 299 287 282 275 271 274 257 249 234 225 220 214 212 217 223 217 212 208 206 205 202 199
310 310 313 317 320 325 330 329 326 325 325 324 325 327 328 330 332 332 329 323 315 301 288 273 267 261 274 263 252 240 233 226 213 221 231 221 213 212 206 203 201 198 195
310 309 314 317 320 323 328 333 334 333 332 329 328 330 331 333 335 336 333 326 317 307 295 274 260 250 267 265 247 236 229 226 217 234 232 221 214 210 204 199 198 194 191
312 308 313 316 319 322 328 332 334 337 339 338 337 337 337 337 339 341 339 333 325 315 299 278 257 246 251 256 241 230 227 225 219 212 228 212 209 207 202 198 192 188 189
313 311 316 318 320 322 327 332 335 341 345 347 347 348 347 347 348 347 346 346 338 327 311 294 259 243 238 241 236 235 228 221 205 225 219 207 203 203 199 194 188 187 185